Regional Weather Roundup
Issued by NWS

Current Version |  Previous Version |  Text Only |  Print | Product List |  Glossary On
Versions: 1 2 3 4 5 6 7 8 9 10 11 12 13 14 15 16 17 18 19 20 21 22 23 24 25 26 27 28 29 30 31 32 33 34 35 36 37 38 39 40 41 42 43 44 45 46 47 48 49 50
760
ASUS46 KSEW 180220
RWRWA

WASHINGTON REGIONAL WEATHER ROUNDUP
NATIONAL WEATHER SERVICE SEATTLE WA
700 PM PDT WED JUL 17 2024

NOTE:"FAIR" INDICATES FEW OR NO CLOUDS BELOW 12,000 FEET WITH NO
SIGNIFICANT WEATHER AND/OR OBSTRUCTIONS TO VISIBILITY.

WAZ507-509-555>559-180300-
SEATTLE, TACOMA, EVERETT, AND VICINITY

CITY           SKY/WX    TMP DP  RH WIND       PRES   REMARKS
EVERETT        MOSUNNY   74  57  55 N7        29.99S TC  23
BOEING FIELD   MOSUNNY   83  59  44 VRB6      29.95F TC  28
RENTON         MOSUNNY   84  59  42 VRB6      29.95F TC  29
SEATAC AIRPORT MOSUNNY   81  58  45 SW9       29.98F TC  27
JBLM-MCCHORD   SUNNY     79  60  51 W7        29.98S TC  26
PUYALLUP       SUNNY     81  61  50 VRB3      29.99S TC  27
BREMERTON        N/A    N/A N/A N/A MISG        N/A
JBLM-FT LEWIS  SUNNY     77  58  51 W12       29.96S TC  25
TACOMA NARROWS SUNNY     77  59  53 W8        29.99S TC  25
$$

WAZ001-503-506-510-514-515-180300-
NORTH INTERIOR

CITY           SKY/WX    TMP DP  RH WIND       PRES   REMARKS
BELLINGHAM     MOSUNNY   73  58  59 S10       29.94S TC  23
FRIDAY HARBOR  SUNNY     65  54  67 SE6       29.96S TC  18
EASTSOUND      MOSUNNY   70  57  64 S16       29.92S TC  21
PORT ANGELES   SUNNY     67  57  70 W12       29.99R TC  19
EDIZ HOOK      SUNNY     59  56  90 W21       29.98S TC  15
PORT TOWNSEND  SUNNY     72  57  60 N8        29.96S TC  22
NAS WHIDBEY    PTSUNNY   63  55  75 SW9       29.98S TC  17
ARLINGTON      MOSUNNY   77  59  53 NW9       29.97S TC  25
BURLINGTON     SUNNY     73  63  68 CALM      29.97S TC  23
$$

WAZ020-022-039-040-504-511-512-180300-
SOUTHWEST INTERIOR

CITY           SKY/WX    TMP DP  RH WIND       PRES   REMARKS
SHELTON        SUNNY     68  56  65 W22G32    30.00R TC  20
OLYMPIA        SUNNY     78  59  51 SW8       29.99S TC  26
CHEHALIS       SUNNY     73  61  64 VRB5      30.02R TC  23
KELSO          SUNNY     72  58  61 W7        30.03R TC  22
VANCOUVER      SUNNY     86  56  35 CALM      29.98S TC  30
SCAPPOOSE, OR  SUNNY    N/A N/A N/A N10       29.98R
PORTLAND, OR   MOSUNNY   88  56  33 CALM      29.97R TC  31
$$

WAZ021-516-517-180300-
WASHINGTON COAST

CITY           SKY/WX    TMP DP  RH WIND       PRES   REMARKS
FORKS          CLOUDY    60  57  89 MISG      30.06S TC  16
HOQUIAM        CLOUDY    61  56  83 W12       30.08S TC  16
ASTORIA, OR    SUNNY     61  53  75 SW10      30.08R TC  16
$$

WAZ019-023-024-040-567>569-180300-
CASCADE MOUNTAINS AND COLUMBIA GORGE

CITY           SKY/WX    TMP DP  RH WIND       PRES   REMARKS
STAMPEDE PASS  CLOUDY    71  47  42 CALM      30.13F TC  22
TROUTDALE, OR  SUNNY     88  58  36 VRB5      29.97S TC  31
HOOD RIVER, OR SUNNY     82  55  39 W3        29.94R TC  28
THE DALLES, OR SUNNY     87  59  38 NW18G29   29.86R TC  31
$$

WAZ026-027-041>044-520-521-180300-
EAST SLOPES

CITY           SKY/WX    TMP DP  RH WIND       PRES   REMARKS
OMAK           MOSUNNY   99  44  15 SE5       29.87F HX  95  TC  37
WENATCHEE      MOSUNNY   92  45  19 W13       29.89R TC  33
ELLENSBURG     MOSUNNY   89  45  21 NW17      29.95R TC  32
YAKIMA         SUNNY     91  45  20 N12G22    29.90S TC  33
SUNNYSIDE ARPT MOSUNNY   89  51  27 NE8       29.86F TC  32
YAKIMA TC      FAIR      93  39  15 NW10      29.87S TC  34
$$

WAZ028-034-035-180300-
COLUMBIA BASIN

CITY           SKY/WX    TMP DP  RH WIND       PRES   REMARKS
EPHRATA        CLOUDY    95  40  14 S5        29.87F HX  91  TC  35
MOSES LAKE     CLOUDY    92  51  24 S8        29.88S TC  33
PASCO          PTSUNNY   92  51  24 NW18G29   29.84S TC  33
RICHLAND ARPT  PTSUNNY   95  44  17 N20       29.83F HX  91  TC  35
HERMISTON, OR  LGT RAIN  95  49  20 NE9       29.84S HX  92  TC  35
$$

WAZ036>038-180300-
NORTHEAST WASHINGTON

CITY           SKY/WX    TMP DP  RH WIND       PRES   REMARKS
SPOKANE GEIGER PTSUNNY   93  41  16 SE7       29.98S TC  34
SPOKANE FELTS  PTSUNNY   92  48  22 E3        29.95S TC  33
FAIRCHILD AFB  MOSUNNY   90  41  17 SE8       29.98S TC  32
COEURDALENE,ID PTSUNNY   86  55  34 S6        29.99R TC  30
DEER PARK      PTSUNNY   89  52  28 SE7       29.97S TC  32
$$

WAZ029>033-180300-
SOUTHEAST WASHINGTON

CITY           SKY/WX    TMP DP  RH WIND       PRES   REMARKS
PULLMAN        CLOUDY    87  44  22 E6        29.99S TC  31
LEWISTON, ID   CLOUDY    94  43  17 NE7       29.88R HX  90  TC  34
WALLA WALLA    PTSUNNY   85  55  35 E18G30    29.88F TC  29
PENDLETON, OR  SUNNY     88  54  31 E17G26    29.90R TC  31
$$